Weather History for Charlottetown, PE

Change the Weather History Date:

Monday, August 19, 2013

  Actual Average Record
Temperature  
Mean Temperature 70 °F -  
Max Temperature 78 °F 67 °F 78 °F (2002)
Min Temperature 60 °F 51 °F 48 °F (2003)
Cooling Degree Days 4    
Growing Degree Days 20 (Base 50)    
Moisture  
Dew Point 60 °F    
Average Humidity 75    
Maximum Humidity 94    
Minimum Humidity 46    
Precipitation  
Precipitation 0.00 in 0.12 in - ()
Sea Level Pressure  
Sea Level Pressure 29.81 in    
Wind  
Wind Speed 10 mph ()    
Max Wind Speed 20 mph    
Max Gust Speed 28 mph    
Visibility 15.0 miles    
Events Rain    
Averages and records for this station are not official NWS values.
T = Trace of Precipitation, MM = Missing Value Source: Averaged Metar Reports

Daily Weather History Graph

Daily Weather History Graph

Search for Another Location

Airport:

Trip Planner

Search our weather history database for the weather conditions in past years. The results will help you decide how hot, cold, wet, or windy it might be!

Date:

Astronomy

Aug. 19, 2013 Rise Set
Actual Time 6:16 AM ADT 8:14 PM ADT
Civil Twilight 5:44 AM ADT 8:46 PM ADT
Nautical Twilight 5:04 AM ADT 9:26 PM ADT
Astronomical Twilight 4:20 AM ADT 10:10 PM ADT
Moon 7:02 PM ADT (8/19) 4:28 AM ADT (8/19)
Length of Visible Light 15h 02m
Length of Day
13h 57m
Waxing Gibbous, 97% of the Moon is Illuminated
Aug 19
Waxing Gibbous
Aug 20
Full
Aug 28
Last Quarter
Sep 5
New
Sep 12
First Quarter

Hourly Weather History & Observations

Time (ADT) Temp. Dew Point Humidity Pressure Visibility Wind Dir Wind Speed Gust Speed Precip Events Conditions
12:00 AM 62.6 °F 55.4 °F 77% 29.97 in 15.0 mi WSW 9.2 mph - N/A   Mostly Cloudy
1:00 AM 62.6 °F 57.2 °F 82% 29.95 in 15.0 mi WSW 10.4 mph - N/A   Partly Cloudy
2:00 AM 62.6 °F 57.2 °F 82% 29.94 in 15.0 mi WSW 10.4 mph - N/A   Clear
3:00 AM 62 °F 57 °F 79% 29.92 in 15 mi WSW 9.2 mph - -  
3:00 AM 60.8 °F 57.2 °F 88% 29.92 in 15.0 mi WSW 9.2 mph - N/A   Clear
4:00 AM 62.6 °F 55.4 °F 77% 29.90 in 15.0 mi WSW 10.4 mph - N/A   Clear
5:00 AM 62.6 °F 57.2 °F 82% 29.88 in 15.0 mi WSW 11.5 mph - N/A   Clear
6:00 AM 60.8 °F 57.2 °F 88% 29.86 in 15.0 mi WSW 10.4 mph - N/A   Clear
7:00 AM 62.6 °F 57.2 °F 82% 29.85 in 15.0 mi WSW 9.2 mph - N/A   Clear
8:00 AM 64.4 °F 59.0 °F 83% 29.83 in 15.0 mi SW 12.7 mph 18.4 mph N/A   Partly Cloudy
9:00 AM 66 °F 59 °F 70% 29.82 in 15 mi WSW 13.8 mph - -   Scattered Clouds
9:00 AM 66.2 °F 59.0 °F 78% 29.82 in 15.0 mi WSW 13.8 mph 20.7 mph N/A   Partly Cloudy
10:00 AM 68.0 °F 59.0 °F 73% 29.80 in 15.0 mi SW 16.1 mph - N/A   Partly Cloudy
11:00 AM 69.8 °F 60.8 °F 73% 29.79 in 15.0 mi SW 12.7 mph 19.6 mph N/A   Scattered Clouds
12:00 PM 71.6 °F 60.8 °F 69% 29.78 in 15.0 mi SW 16.1 mph 25.3 mph N/A   Scattered Clouds
1:00 PM 75.2 °F 60.8 °F 61% 29.75 in 15.0 mi SW 17.3 mph 27.6 mph N/A   Scattered Clouds
2:00 PM 77.0 °F 60.8 °F 57% 29.73 in 15.0 mi WSW 15.0 mph 24.2 mph N/A   Scattered Clouds
3:00 PM 77 °F 60 °F 46% 29.73 in 15 mi WSW 17.3 mph - -   Scattered Clouds
3:00 PM 77.0 °F 60.8 °F 57% 29.72 in 15.0 mi West 19.6 mph 26.5 mph N/A   Mostly Cloudy
4:00 PM 77.0 °F 62.6 °F 61% 29.72 in 15.0 mi West 15.0 mph 21.9 mph N/A   Mostly Cloudy
4:28 PM 73.4 °F 62.6 °F 69% 29.73 in 15.0 mi West 10.4 mph 19.6 mph N/A Rain Light Rain Showers
5:00 PM 73.4 °F 62.6 °F 69% 29.73 in 15.0 mi West 10.4 mph - N/A   Mostly Cloudy
5:35 PM 73.4 °F 62.6 °F 69% 29.74 in 15.0 mi NW 16.1 mph 26.5 mph N/A   Mostly Cloudy
6:00 PM 73.4 °F 60.8 °F 65% 29.75 in 15.0 mi NW 11.5 mph 17.3 mph N/A   Mostly Cloudy
7:00 PM 71.6 °F 62.6 °F 73% 29.76 in 15.0 mi NNW 6.9 mph - N/A   Scattered Clouds
8:00 PM 68.0 °F 62.6 °F 83% 29.78 in 15.0 mi NNW 4.6 mph - N/A   Partly Cloudy
9:00 PM 66 °F 61 °F 80% 29.80 in 15 mi WNW 3.5 mph - -   Partly Cloudy
9:00 PM 66.2 °F 60.8 °F 83% 29.80 in 15.0 mi WNW 4.6 mph - N/A   Partly Cloudy
10:00 PM 64.4 °F 60.8 °F 88% 29.82 in 15.0 mi NNW 3.5 mph - N/A   Partly Cloudy
11:00 PM 60.8 °F 59.0 °F 94% 29.82 in 15.0 mi NNE 4.6 mph - N/A   Partly Cloudy